Regional Weather Roundup
Issued by NWS

Home | Current Version | Previous Version | Text Only | Print | Product List | Glossary Off
Versions: 1 2 3 4 5 6 7 8 9 10 11 12 13 14 15 16 17 18 19 20 21 22 23 24 25 26 27 28 29 30 31 32 33 34 35 36 37 38 39 40 41 42 43 44 45 46 47 48 49 50

000
ASUS43 KMKX 270911
RWRWI

WISCONSIN REGIONAL WEATHER ROUNDUP
NATIONAL WEATHER SERVICE MILWAUKEE/SULLIVAN WI
400 AM CDT SAT MAY 27 2017

NOTE: "FAIR" INDICATES FEW OR NO CLOUDS BELOW 12,000 FEET WITH NO
SIGNIFICANT WEATHER AND/OR OBSTRUCTIONS TO VISIBILITY.

WIZ001-002-006>008-014>016-023>028-271000-
NORTHWEST WISCONSIN

CITY           SKY/WX    TMP DP  RH WIND       PRES   REMARKS
SUPERIOR ARPT  NOT AVBL
ASHLAND        CLEAR     53  52  96 W6        29.80R
HAYWARD        FOG       47  46  97 CALM      29.83S VSB<1/4
SIREN          CLEAR     48  47  95 CALM      29.85R
CUMBERLAND     CLEAR     50  48  93 SW3       29.85R
RICE LAKE      PTCLDY    51  51  98 CALM      29.86R FOG
CHETEK         FOG       52  52 100 CALM      29.85R VSB<1/4
LADYSMITH      FOG       55  54  96 CALM      29.85S VSB 1
EAU CLAIRE     CLEAR     54  53  97 CALM      29.83S FOG
MENOMONIE      CLEAR     56  52  88 W3        29.85R
NEW RICHMOND   CLEAR     51  49  93 CALM      29.86R
OSCEOLA        CLEAR     48  48 100 CALM      29.88R
$$

WIZ003>005-009-010-017-018-271000-
NORTH CENTRAL WISCONSIN

CITY           SKY/WX    TMP DP  RH WIND       PRES   REMARKS
MANITOWISH WTR CLOUDY    56  56 100 CALM      29.83S
ARBOR VITAE    CLOUDY    57  55  92 S3        29.84S
WOODRUFF       CLOUDY    57  55  92 S3        29.84S
RHINELANDER    CLOUDY    58  55  90 SW8       29.85F
EAGLE RIVER    CLOUDY    54  54  99 CALM      29.84F
LAND O LAKES   CLOUDY    55  54  95 CALM      29.86S
PHILLIPS       CLEAR     55  55 100 SW3       29.83S
TOMAHAWK       MOCLDY    54  53  95 CALM      29.85S FOG
MEDFORD        CLOUDY    54  52  95 S5        29.85S
MERRILL        CLOUDY    56  56 100 CALM      29.86F
$$

WIZ029-030-035-036-043>047-271000-
CENTRAL WISCONSIN

CITY           SKY/WX    TMP DP  RH WIND       PRES   REMARKS
WAUSAU         CLOUDY    54  53  97 S3        29.85F
MOSINEE        PTCLDY    52  52 100 CALM      29.87F
MARSHFIELD     MOCLDY    54  52  93 SW5       29.85F
STEVENS POINT  PTCLDY    51  51 100 CALM      29.87F FOG
WAUPACA        CLEAR     53  53  97 CALM      29.88R FOG
WAUTOMA        CLEAR     49  48  97 CALM      29.89R
WISC RAPIDS    PTCLDY    52  51  97 CALM      29.87F FOG
CAMP DOUGLAS   PTCLDY    53  53 100 CALM      29.87S
$$

WIZ011>013-019>022-031-037>040-048>050-271000-
NORTHEAST WISCONSIN

CITY           SKY/WX    TMP DP  RH WIND       PRES   REMARKS
ANTIGO         CLOUDY    52  52  99 SW6       29.88S
SHAWANO        CLEAR     54  52  94 CALM      29.88R FOG
OCONTO           N/A     49  49  99 CALM      29.86S
STURGEON BAY   CLEAR     49  48  97 MISG      29.88S
GREEN BAY      CLEAR     52  52 100 CALM      29.87S FOG
MANITOWOC      CLEAR     48  47  96 CALM      29.88F
APPLETON       CLEAR     52  50  93 CALM      29.87R
CLINTONVILLE   CLEAR     52  52 100 CALM      29.88R FOG
OSHKOSH        CLEAR     52  50  93 CALM      29.87S
$$

WIZ032>034-041-042-053>061-271000-
SOUTHWEST WISCONSIN

CITY           SKY/WX    TMP DP  RH WIND       PRES   REMARKS
LA CROSSE      CLEAR     60  58  92 SE5       29.86S
SPARTA         CLEAR     48  48 100 CALM      29.87S
VIROQUA        PTCLDY    55  55  98 SW6       29.88S
BOSCOBEL       FOG       52  51  97 CALM      29.89R VSB 1/4
PRAIRIE DU CHI FOG       53  52  95 CALM      29.88S VSB 1/4
PLATTEVILLE    CLEAR     53  53 100 CALM      29.88S
$$

WIZ056-057-062-063-064-067-068-271000-
SOUTH CENTRAL WISCONSIN

CITY           SKY/WX    TMP DP  RH WIND       PRES   REMARKS
REEDSBURG      CLOUDY    50  50 100 CALM      29.87F FOG
BARABOO/DELLS  FOG       49  48  95 CALM      29.88S VSB 1/4
LONE ROCK      FOG       52  51  97 CALM      29.88S VSB<1/4
MINERAL POINT  CLEAR     54  54 100 CALM      29.88S FOG
MADISON        FOG       48  47  96 CALM      29.88R VSB 1
MIDDLETON      CLOUDY    48  48 100 CALM      29.89R VSB 1/2
WATERTOWN      CLEAR     46  46 100 CALM      29.88S
MONROE         CLEAR     52  52 100 E5        29.88S
JANESVILLE       N/A     50  50 100 CALM      29.88S FOG
$$

WIZ051-052-058>065-066-070>072-271000-
SOUTHEAST WISCONSIN

CITY           SKY/WX    TMP DP  RH WIND       PRES   REMARKS
MILWAUKEE      CLOUDY    54  53  97 CALM      29.88S
WAUKESHA       FOG       46  46 100 CALM      29.90S VSB 1/4
MILWAUKEE/TIMM   N/A     54  50  87 CALM      29.89S FOG
RACINE         CLOUDY    51  49  92 CALM      29.90S
KENOSHA        CLOUDY    51  50  96 CALM      29.88S FOG
FOND DU LAC    CLEAR     49  46  90 S5        29.88S FOG
SHEBOYGAN      FOG       48  48 100 CALM      29.87F VSB 3/4
WEST BEND      FOG       46  46 100 CALM      29.89R VSB 1/4
JUNEAU         FOG       49  49  99 CALM      29.90R VSB 1/4
$$

LSZ147-162-271000-
LAKE SUPERIOR

STATION/POSITION TIME  TEMP    WIND        PRES    WAVE
                       AIR SEA DIR/SP/G            HT/PER
                 (UTC) (F)     (DEG/KT/KT) (MB)    (FT/S)
W MID LAKE BUOY  0750   45 37  190/  6/  6 1008.8R   0
DEVILS ISLAND    0900   44     230/ 11/ 12 1009.2R
PORT WING        0830   43     140/  2/  3 1009.5S
SAXON HARBOR     0840   61     190/  6/  9 1008.8R
$$

LMZ867-665-643>646-271000-
LAKE MICHIGAN

STATION/POSITION TIME  TEMP    WIND        PRES    WAVE
                       AIR SEA DIR/SP/G            HT/PER
                 (UTC) (F)     (DEG/KT/KT) (MB)    (FT/S)
CHAMBERS ISLAND  0830   54      CALM  /  2 1011.2S
N MID LAKE BUOY  0850   44 42  170/  4/  6 1012.7F   0
NORTHPORT PIER   0840   50     160/  5/  6 1011.5S
SISTER BAY       0821   53     160/  6/  8   N/A
ALGOMA LAKESHORE 0846             CALM       N/A
KEWAUNEE LAKESHO 0848   49     180/  3/  4 1011.4S
SHEBOYGAN LAKESH 0900   53     220/  2/  2 1011.6F
PORT WASHINGTON  0840   50      CALM  /  1 1012.9S
ATWATER BUOY     0809   48     140/  2/  4 1011.9F
MILWAUKEE LAKESH 0850   50     100/  2/  2   N/A
S MID LAKE BUOY  0750   48 46   40/  4/  6 1011.8R   0
KENOSHA   LAKESH 0900   51        CALM     1011.9
$$

TC  - TEMPERATURE IN CELSIUS
VSB - VISIBILITY IN STATUTE MILES
WCI - WIND CHILL INDEX
HX  - HEAT INDEX





USA.gov is the U.S. government's official web portal to all federal, state and local government web resources and services.